KJ6WEG Weather Reports


Display with metric or nautical units.
time (UTC)temp
F
wind
direction
speed
MPH
gust
MPH
rain 1hr
in
rain 24hr
in
rain mn
in
humidity
%
barometer
mb
20260509223555 68 175 2.0 7.0 0.00 0.00 0.00 71 1014.7
20260509223057 68 236 2.0 7.0 0.00 0.00 0.00 72 1014.7
20260509222556 68 340 1.0 8.0 0.00 0.00 0.00 73 1014.9
20260509222054 67 192 3.0 8.0 0.00 0.00 0.00 71 1014.9
20260509221552 68 270 3.0 8.0 0.00 0.00 0.00 72 1015.0
20260509221052 67 250 3.0 8.0 0.00 0.00 0.00 71 1015.0
20260509220552 67 236 3.0 8.0 0.00 0.00 0.00 71 1015.1
20260509220056 68 213 2.0 8.0 0.00 0.00 0.00 71 1015.0
20260509215555 67 239 2.0 8.0 0.00 0.00 0.00 72 1015.2
20260509215052 67 238 3.0 8.0 0.00 0.00 0.00 72 1015.1
20260509214555 67 157 2.0 7.0 0.00 0.00 0.00 73 1015.1
20260509214054 67 0 2.0 7.0 0.00 0.00 0.00 73 1015.1
20260509213551 66 204 1.0 8.0 0.00 0.00 0.00 73 1015.3
20260509213105 66 217 3.0 8.0 0.00 0.00 0.00 73 1015.3
20260509212555 66 242 3.0 8.0 0.00 0.00 0.00 73 1015.4
20260509212052 66 250 3.0 11.0 0.00 0.00 0.00 75 1015.5
20260509211601 65 217 4.0 11.0 0.00 0.00 0.00 74 1015.5
20260509211052 66 243 2.0 7.0 0.00 0.00 0.00 76 1015.5
20260509210551 65 238 2.0 9.0 0.00 0.00 0.00 77 1015.6
20260509210056 65 249 3.0 9.0 0.00 0.00 0.00 76 1015.6
20260509205554 65 233 3.0 9.0 0.00 0.00 0.00 76 1015.6
20260509205054 65 240 3.0 9.0 0.00 0.00 0.00 77 1015.6
20260509204601 65 280 3.0 8.0 0.00 0.00 0.00 76 1015.6
20260509204051 65 259 3.0 8.0 0.00 0.00 0.00 75 1015.7
20260509203551 65 225 2.0 8.0 0.00 0.00 0.00 75 1015.7
20260509203101 65 232 2.0 9.0 0.00 0.00 0.00 75 1015.7
20260509202552 65 239 2.0 9.0 0.00 0.00 0.00 75 1015.7
20260509202053 65 242 2.0 9.0 0.00 0.00 0.00 75 1015.7
20260509201555 65 228 2.0 8.0 0.00 0.00 0.00 76 1015.7
20260509201051 65 250 3.0 8.0 0.00 0.00 0.00 74 1015.8
20260509200554 66 227 3.0 8.0 0.00 0.00 0.00 74 1015.9
20260509200057 66 0 1.0 8.0 0.00 0.00 0.00 73 1015.8
20260509195552 66 238 2.0 8.0 0.00 0.00 0.00 72 1015.7
20260509195055 66 168 1.0 6.0 0.00 0.00 0.00 73 1015.8
20260509194601 65 266 2.0 10.0 0.00 0.00 0.00 74 1015.8
20260509194052 65 219 2.0 10.0 0.00 0.00 0.00 74 1015.8
20260509193552 65 0 3.0 9.0 0.00 0.00 0.00 73 1015.8
20260509193056 65 302 2.0 7.0 0.00 0.00 0.00 74 1015.9
20260509192551 66 270 2.0 9.0 0.00 0.00 0.00 73 1015.9
20260509192054 65 0 2.0 9.0 0.00 0.00 0.00 72 1016.1
20260509191606 66 272 2.0 9.0 0.00 0.00 0.00 71 1016.0
20260509191051 66 197 2.0 10.0 0.00 0.00 0.00 72 1016.1
20260509190557 66 202 1.0 10.0 0.00 0.00 0.00 72 1016.0
20260509190055 65 215 4.0 10.0 0.00 0.00 0.00 72 1016.0
20260509185552 65 214 3.0 10.0 0.00 0.00 0.00 72 1016.1
20260509185056 65 209 2.0 10.0 0.00 0.00 0.00 74 1016.1
20260509184604 65 0 3.0 8.0 0.00 0.00 0.00 74 1016.0
20260509184051 65 219 3.0 9.0 0.00 0.00 0.00 73 1016.1
20260509183555 65 222 2.0 9.0 0.00 0.00 0.00 74 1016.1
20260509183059 64 250 2.0 9.0 0.00 0.00 0.00 74 1016.1
20260509182552 65 360 4.0 10.0 0.00 0.00 0.00 73 1016.1
20260509182058 65 238 5.0 10.0 0.00 0.00 0.00 73 1016.1
20260509181601 64 193 2.0 9.0 0.00 0.00 0.00 75 1016.2
20260509181054 64 213 2.0 9.0 0.00 0.00 0.00 76 1016.2
20260509180553 63 236 3.0 9.0 0.00 0.00 0.00 76 1016.2
20260509180112 63 236 4.0 10.0 0.00 0.00 0.00 75 1016.3
20260509175554 63 217 4.0 10.0 0.00 0.00 0.00 75 1016.2
20260509175051 63 165 2.0 9.0 0.00 0.00 0.00 77 1016.3
20260509174553 62 138 4.0 9.0 0.00 0.00 0.00 77 1016.4
20260509174053 62 228 4.0 9.0 0.00 0.00 0.00 77 1016.3
20260509173554 62 275 4.0 9.0 0.00 0.00 0.00 76 1016.3
20260509173105 62 360 3.0 9.0 0.00 0.00 0.00 77 1016.3
20260509172556 62 177 2.0 9.0 0.00 0.00 0.00 77 1016.3
20260509172057 62 0 5.0 9.0 0.00 0.00 0.00 77 1016.3
20260509171553 62 155 2.0 9.0 0.00 0.00 0.00 79 1016.3
20260509171056 61 248 2.0 9.0 0.00 0.00 0.00 79 1016.3
20260509170557 61 115 3.0 9.0 0.00 0.00 0.00 79 1016.3
20260509170056 61 174 3.0 10.0 0.00 0.00 0.00 80 1016.3
20260509165556 60 86 3.0 10.0 0.00 0.00 0.00 80 1016.3
20260509165056 60 167 3.0 10.0 0.00 0.00 0.00 80 1016.4
20260509164555 60 167 3.0 10.0 0.00 0.00 0.00 81 1016.5
20260509164055 60 184 5.0 9.0 0.00 0.00 0.00 81 1016.5
20260509163556 59 155 3.0 9.0 0.00 0.00 0.00 82 1016.5
20260509163059 59 141 2.0 7.0 0.00 0.00 0.00 82 1016.5
20260509162557 59 158 1.0 8.0 0.00 0.00 0.00 83 1016.3
20260509162057 58 186 1.0 8.0 0.00 0.00 0.00 84 1016.4
20260509161603 58 360 2.0 7.0 0.00 0.00 0.00 84 1016.4
20260509161053 58 225 3.0 8.0 0.00 0.00 0.00 85 1016.4
20260509160553 57 211 2.0 8.0 0.00 0.00 0.00 85 1016.4
20260509155556 57 360 2.0 7.0 0.00 0.00 0.00 86 1016.4
20260509155056 57 194 3.0 7.0 0.00 0.00 0.00 85 1016.5
20260509154559 57 178 2.0 9.0 0.00 0.00 0.00 87 1016.5
20260509154053 56 160 3.0 9.0 0.00 0.00 0.00 86 1016.4
20260509153556 57 182 3.0 9.0 0.00 0.00 0.00 86 1016.5
20260509153102 57 169 2.0 9.0 0.00 0.00 0.00 87 1016.4
20260509152555 56 156 2.0 8.0 0.00 0.00 0.00 88 1016.4
20260509152057 56 173 3.0 8.0 0.00 0.00 0.00 89 1016.4
20260509151555 55 132 2.0 8.0 0.00 0.00 0.00 88 1016.4
20260509151053 55 212 3.0 8.0 0.00 0.00 0.00 89 1016.3
20260509150554 55 134 3.0 8.0 0.00 0.00 0.00 89 1016.2
20260509150056 55 119 3.0 6.0 0.00 0.00 0.00 90 1016.3
20260509145554 54 94 1.0 6.0 0.00 0.00 0.00 90 1016.3
20260509145056 54 142 3.0 6.0 0.00 0.00 0.00 90 1016.3
20260509144555 54 360 1.0 5.0 0.00 0.00 0.00 91 1016.3
20260509144053 54 113 1.0 5.0 0.00 0.00 0.00 90 1016.2
20260509143556 54 180 2.0 6.0 0.00 0.00 0.00 90 1016.3
20260509143058 54 0 2.0 6.0 0.00 0.00 0.00 91 1016.3
20260509142553 54 165 2.0 7.0 0.00 0.00 0.00 91 1016.2
20260509142053 54 0 2.0 9.0 0.00 0.00 0.00 91 1016.2
20260509141556 54 203 4.0 9.0 0.00 0.00 0.00 91 1016.2
20260509141053 54 156 3.0 7.0 0.00 0.00 0.00 91 1016.1
20260509140554 54 146 2.0 7.0 0.00 0.00 0.00 91 1016.0
20260509140106 53 148 3.0 8.0 0.00 0.00 0.00 92 1016.0
20260509135553 53 136 2.0 8.0 0.00 0.00 0.00 92 1016.1
20260509135055 53 155 4.0 8.0 0.00 0.00 0.00 92 1016.1
20260509134554 53 154 3.0 7.0 0.00 0.00 0.00 92 1016.1
20260509134055 53 153 4.0 8.0 0.00 0.00 0.00 92 1016.0
20260509133554 53 360 2.0 8.0 0.00 0.00 0.00 92 1015.9
20260509133057 53 144 3.0 7.0 0.00 0.00 0.00 92 1016.0
20260509132552 53 179 2.0 9.0 0.00 0.00 0.00 92 1015.9
20260509132052 53 196 3.0 9.0 0.00 0.00 0.00 92 1016.1
20260509131555 53 209 4.0 9.0 0.00 0.00 0.00 92 1016.0
20260509131052 53 360 2.0 7.0 0.00 0.00 0.00 92 1016.0
20260509130552 53 155 3.0 8.0 0.00 0.00 0.00 92 1015.9
20260509130052 53 131 3.0 9.0 0.00 0.00 0.00 92 1015.9
20260509125553 53 166 4.0 9.0 0.00 0.00 0.00 92 1015.8
20260509125054 53 169 4.0 9.0 0.00 0.00 0.00 92 1015.8
20260509124556 53 151 4.0 12.0 0.00 0.00 0.00 92 1015.8
20260509124053 53 173 5.0 13.0 0.00 0.00 0.00 92 1015.8
20260509123552 53 146 5.0 13.0 0.00 0.00 0.00 91 1015.9
20260509123053 53 193 5.0 11.0 0.00 0.00 0.00 91 1015.8
20260509122552 53 163 5.0 10.0 0.00 0.00 0.00 91 1015.8
20260509122055 53 194 4.0 11.0 0.00 0.00 0.00 91 1015.8
20260509121554 53 184 5.0 11.0 0.00 0.00 0.00 91 1015.7
20260509121056 53 213 5.0 11.0 0.00 0.00 0.00 91 1015.8
20260509120552 54 234 4.0 11.0 0.00 0.00 0.00 91 1015.8
20260509120100 54 182 5.0 11.0 0.00 0.00 0.00 91 1015.7
20260509115551 54 194 5.0 11.0 0.00 0.00 0.00 91 1015.8
20260509115054 54 197 4.0 12.0 0.00 0.00 0.00 91 1015.9
20260509114557 54 136 5.0 12.0 0.00 0.00 0.00 91 1015.9
20260509114051 54 146 5.0 10.0 0.00 0.00 0.00 91 1015.9
20260509113550 54 154 2.0 8.0 0.00 0.00 0.00 91 1015.9
20260509113054 54 161 4.0 8.0 0.00 0.00 0.00 91 1015.9
20260509112554 54 186 3.0 9.0 0.00 0.00 0.00 91 1015.9
20260509112052 54 181 4.0 9.0 0.00 0.00 0.00 91 1015.8
20260509111558 54 191 3.0 8.0 0.00 0.00 0.00 91 1015.9
20260509111130 54 360 3.0 8.0 0.00 0.00 0.00 91 1015.9
20260509110554 54 197 4.0 7.0 0.00 0.00 0.00 91 1015.9
20260509110055 54 190 2.0 6.0 0.00 0.00 0.00 91 1015.9
20260509105551 54 172 3.0 7.0 0.00 0.00 0.00 91 1016.0
20260509105052 54 182 2.0 7.0 0.00 0.00 0.00 91 1015.9
20260509104600 54 219 3.0 6.0 0.00 0.00 0.00 91 1016.0
20260509104054 54 0 2.0 8.0 0.00 0.00 0.00 91 1016.0
20260509103551 54 219 2.0 9.0 0.00 0.00 0.00 91 1016.0
20260509103105 54 209 2.0 10.0 0.00 0.00 0.00 91 1016.0
20260509102554 54 238 4.0 10.0 0.00 0.00 0.00 91 1016.0
20260509102056 54 167 4.0 9.0 0.00 0.00 0.00 91 1016.0
20260509101611 54 171 4.0 9.0 0.00 0.00 0.00 91 1016.0
20260509101054 54 188 4.0 9.0 0.00 0.00 0.00 91 1016.0
20260509100555 54 163 4.0 10.0 0.00 0.00 0.00 90 1016.0
20260509100055 54 182 3.0 11.0 0.00 0.00 0.00 90 1015.9
20260509095554 54 170 5.0 11.0 0.00 0.00 0.00 90 1016.0
20260509095054 54 217 3.0 9.0 0.00 0.00 0.00 91 1016.1
20260509094601 54 142 4.0 9.0 0.00 0.00 0.00 91 1016.1
20260509094054 54 142 4.0 9.0 0.00 0.00 0.00 91 1016.1
20260509093554 54 169 4.0 9.0 0.00 0.00 0.00 91 1016.2
20260509093055 54 171 3.0 7.0 0.00 0.00 0.00 91 1016.2
20260509092554 54 162 4.0 7.0 0.00 0.00 0.00 91 1016.4
20260509092056 54 156 3.0 9.0 0.00 0.00 0.00 91 1016.4
20260509091556 54 183 4.0 9.0 0.00 0.00 0.00 91 1016.3
20260509091055 54 166 4.0 9.0 0.00 0.00 0.00 91 1016.3
20260509090554 54 250 4.0 10.0 0.00 0.00 0.00 91 1016.2
20260509090100 54 181 4.0 10.0 0.00 0.00 0.00 91 1016.2
20260509085554 53 162 4.0 8.0 0.00 0.00 0.00 91 1016.2
20260509085051 53 146 4.0 8.0 0.00 0.00 0.00 91 1016.2
20260509084601 53 175 2.0 8.0 0.00 0.00 0.00 91 1016.2
20260509084051 53 144 3.0 10.0 0.00 0.00 0.00 90 1016.4
20260509083554 53 171 5.0 10.0 0.00 0.00 0.00 91 1016.4
20260509083106 54 197 3.0 8.0 0.00 0.00 0.00 91 1016.4
20260509082555 54 150 4.0 9.0 0.00 0.00 0.00 91 1016.5
20260509082057 54 182 3.0 10.0 0.00 0.00 0.00 91 1016.4
20260509081554 54 111 4.0 10.0 0.00 0.00 0.00 91 1016.5
20260509081053 54 128 4.0 12.0 0.00 0.00 0.00 90 1016.5
20260509080554 54 151 5.0 12.0 0.00 0.00 0.00 90 1016.4
20260509080054 54 154 4.0 11.0 0.00 0.00 0.00 90 1016.5
20260509075554 54 145 6.0 11.0 0.00 0.00 0.00 90 1016.5
20260509075051 54 140 4.0 11.0 0.00 0.00 0.00 90 1016.7
20260509074610 54 115 5.0 10.0 0.00 0.00 0.00 90 1016.6
20260509074054 54 141 4.0 12.0 0.00 0.00 0.00 90 1016.6
20260509073554 54 129 4.0 12.0 0.00 0.00 0.00 90 1016.8
20260509073108 54 148 5.0 10.0 0.00 0.00 0.00 90 1016.6
20260509072555 54 119 5.0 10.0 0.00 0.00 0.00 90 1016.6
20260509072054 54 140 4.0 9.0 0.00 0.00 0.00 90 1016.7
20260509071558 54 147 4.0 13.0 0.00 0.00 0.00 90 1016.7
20260509071055 54 123 4.0 13.0 0.00 0.00 0.00 90 1016.6
20260509070555 54 134 4.0 9.0 0.00 0.00 0.00 90 1016.6
20260509070057 54 141 4.0 8.0 0.00 0.00 0.00 90 1016.8
20260509065553 54 154 4.0 8.0 0.00 0.00 0.00 90 1016.8
20260509065053 54 148 2.0 7.0 0.00 0.00 0.00 89 1016.8
20260509064556 54 141 3.0 8.0 0.00 0.00 0.00 89 1017.0
20260509064054 54 138 3.0 8.0 0.00 0.00 0.00 89 1017.0
20260509063553 54 146 2.0 7.0 0.00 0.00 0.00 90 1017.0
20260509063101 54 139 2.0 9.0 0.00 0.00 0.00 90 1016.9
20260509062553 54 158 4.0 9.0 0.00 0.00 0.00 90 1016.8
20260509062054 54 164 3.0 7.0 0.00 0.00 0.00 89 1017.0
20260509061553 54 180 3.0 9.0 0.00 0.00 0.00 89 1017.0
20260509061052 54 165 3.0 10.0 0.00 0.00 0.00 89 1017.0
20260509060552 54 188 5.0 10.0 0.00 0.00 0.00 89 1017.1
20260509060110 54 161 5.0 10.0 0.00 0.00 0.00 89 1017.1
20260509055551 54 202 4.0 10.0 0.00 0.00 0.00 89 1017.2
20260509055053 54 238 5.0 10.0 0.00 0.00 0.00 89 1017.2
20260509054554 54 219 3.0 8.0 0.00 0.00 0.00 89 1017.2
20260509054053 54 142 3.0 10.0 0.00 0.00 0.00 89 1017.2
20260509053554 54 167 4.0 10.0 0.00 0.00 0.00 89 1017.2
20260509053109 54 122 5.0 10.0 0.00 0.00 0.00 89 1017.1
20260509052551 54 157 3.0 9.0 0.00 0.00 0.00 89 1017.2
20260509052055 54 181 3.0 8.0 0.00 0.00 0.00 89 1017.2
20260509051604 55 173 3.0 8.0 0.00 0.00 0.00 88 1017.3
20260509051055 55 165 4.0 8.0 0.00 0.00 0.00 88 1017.2
20260509050555 55 157 5.0 8.0 0.00 0.00 0.00 88 1017.2
20260509050054 55 163 3.0 9.0 0.00 0.00 0.00 88 1017.2
20260509045554 55 213 5.0 9.0 0.00 0.00 0.00 87 1017.0
20260509045054 55 136 5.0 9.0 0.00 0.00 0.00 87 1017.0
20260509044606 55 184 3.0 8.0 0.00 0.00 0.00 87 1017.0
20260509044054 55 131 3.0 9.0 0.00 0.00 0.00 87 1017.0
20260509043555 55 145 4.0 9.0 0.00 0.00 0.00 87 1017.0
20260509043100 55 132 3.0 8.0 0.00 0.00 0.00 87 1017.0
20260509042554 55 114 4.0 8.0 0.00 0.00 0.00 87 1016.9
20260509042054 55 109 2.0 7.0 0.00 0.00 0.00 87 1016.9
20260509041558 55 116 2.0 7.0 0.00 0.00 0.00 87 1016.8
20260509041055 56 138 3.0 9.0 0.00 0.00 0.00 87 1016.8
20260509040553 56 166 4.0 9.0 0.00 0.00 0.00 87 1016.7
20260509040109 56 164 3.0 8.0 0.00 0.00 0.00 87 1016.7
20260509035553 56 140 2.0 8.0 0.00 0.00 0.00 88 1016.7
20260509035054 56 0 1.0 6.0 0.00 0.00 0.00 88 1016.7
20260509034605 56 182 1.0 5.0 0.00 0.00 0.00 88 1016.8
20260509034053 56 159 0.0 5.0 0.00 0.00 0.00 87 1016.8
20260509033552 56 0 1.0 8.0 0.00 0.00 0.00 87 1016.8
20260509033131 56 206 2.0 8.0 0.00 0.00 0.00 87 1016.7
20260509032554 56 247 2.0 5.0 0.00 0.00 0.00 87 1016.7
20260509032053 56 0 1.0 6.0 0.00 0.00 0.00 86 1016.7
20260509031559 56 220 2.0 6.0 0.00 0.00 0.00 86 1016.6
20260509031054 57 232 2.0 7.0 0.00 0.00 0.00 86 1016.6
20260509030554 57 234 1.0 7.0 0.00 0.00 0.00 85 1016.5
20260509030058 57 207 0.0 6.0 0.00 0.00 0.00 85 1016.6
20260509025554 57 0 1.0 6.0 0.00 0.00 0.00 84 1016.5
20260509025054 58 244 0.0 8.0 0.00 0.00 0.00 84 1016.5
20260509024606 58 239 2.0 8.0 0.00 0.00 0.00 83 1016.5
20260509024052 58 0 0.0 7.0 0.00 0.00 0.00 83 1016.5
20260509023552 58 231 1.0 7.0 0.00 0.00 0.00 83 1016.4
20260509023055 59 229 1.0 8.0 0.00 0.00 0.00 82 1016.5
20260509022554 59 240 2.0 8.0 0.00 0.00 0.00 82 1016.4
20260509022054 59 0 2.0 8.0 0.00 0.00 0.00 81 1016.4
20260509021558 60 0 2.0 7.0 0.00 0.00 0.00 81 1016.3
20260509021053 60 248 1.0 8.0 0.00 0.00 0.00 81 1016.3
20260509020554 60 0 1.0 8.0 0.00 0.00 0.00 81 1016.3
20260509020107 60 247 1.0 5.0 0.00 0.00 0.00 80 1016.2
20260509015552 60 223 1.0 5.0 0.00 0.00 0.00 81 1016.3
20260509015051 60 243 1.0 4.0 0.00 0.00 0.00 81 1016.3
20260509014554 60 240 1.0 8.0 0.00 0.00 0.00 81 1016.4
20260509014053 60 212 2.0 8.0 0.00 0.00 0.00 81 1016.4
20260509013555 60 236 1.0 7.0 0.00 0.00 0.00 81 1016.4
20260509013056 60 252 1.0 7.0 0.00 0.00 0.00 82 1016.4
20260509012553 60 255 1.0 8.0 0.00 0.00 0.00 82 1016.5
20260509012054 59 257 2.0 8.0 0.00 0.00 0.00 82 1016.5
20260509011559 60 173 2.0 9.0 0.00 0.00 0.00 81 1016.5
20260509011057 60 360 2.0 9.0 0.00 0.00 0.00 81 1016.6
20260509010557 60 213 2.0 9.0 0.00 0.00 0.00 81 1016.6
20260509010059 60 257 4.0 9.0 0.00 0.00 0.00 80 1016.7
20260509005554 61 360 3.0 8.0 0.00 0.00 0.00 80 1016.7
20260509005055 61 249 2.0 9.0 0.00 0.00 0.00 80 1016.7
20260509004555 61 209 2.0 9.0 0.00 0.00 0.00 80 1016.8
20260509004053 61 200 3.0 8.0 0.00 0.00 0.00 79 1016.8
20260509003554 61 294 1.0 11.0 0.00 0.00 0.00 80 1016.7
20260509003058 61 298 3.0 11.0 0.00 0.00 0.00 80 1016.8
20260509002553 61 259 2.0 9.0 0.00 0.00 0.00 80 1016.8
20260509002051 61 248 2.0 7.0 0.00 0.00 0.00 80 1016.8
20260509001553 62 217 2.0 7.0 0.00 0.00 0.00 78 1016.8
20260509001055 62 225 1.0 10.0 0.00 0.00 0.00 79 1016.8
20260509000554 62 196 2.0 10.0 0.00 0.00 0.00 79 1016.9
20260509000054 62 244 2.0 10.0 0.00 0.00 0.00 78 1016.9
20260508235557 62 0 2.0 9.0 0.00 0.00 0.00 79 1017.0
20260508235054 63 219 2.0 9.0 0.00 0.00 0.00 78 1017.1
20260508234600 63 221 3.0 9.0 0.00 0.00 0.00 77 1017.1
20260508234054 63 230 2.0 8.0 0.00 0.00 0.00 78 1017.1
20260508233553 63 360 3.0 8.0 0.00 0.00 0.00 76 1017.2
20260508233104 63 236 1.0 8.0 0.00 0.00 0.00 77 1017.3
20260508232554 63 194 2.0 12.0 0.00 0.00 0.00 77 1017.3
20260508232054 63 222 2.0 12.0 0.00 0.00 0.00 77 1017.2
20260508231552 63 246 2.0 9.0 0.00 0.00 0.00 76 1017.4
20260508231053 63 231 3.0 12.0 0.00 0.00 0.00 77 1017.3
20260508230557 63 151 2.0 12.0 0.00 0.00 0.00 78 1017.5
20260508230055 63 242 3.0 12.0 0.00 0.00 0.00 77 1017.5
20260508225554 63 284 3.0 11.0 0.00 0.00 0.00 78 1017.6
20260508225051 63 250 4.0 11.0 0.00 0.00 0.00 76 1017.7
20260508224557 64 298 2.0 11.0 0.00 0.00 0.00 77 1017.7
20260508224054 64 213 3.0 11.0 0.00 0.00 0.00 77 1017.7